Tracking 34305 objects as of 6-Jun-2026
HD Live streaming from Space Station
objects crossing your sky now

STARLINK-37576

Track STARLINK-37576 now!
10-day predictions
STARLINK-37576 is classified as:


NORAD ID: 69047
Int'l Code: 2026-101Y
Perigee: 455.9 km
Apogee: 458.8 km
Inclination: 97.3 °
Period: 93.6 minutes
Semi major axis: 6828 km
RCS: Unknown
Launch date: May 6, 2026
Source: United States (US)
Launch site: AIR FORCE WESTERN TEST RANGE (AFWTR)
Your satellite tracking list
Your tracking list is empty




NASA's NSSDC Master Catalog

Two Line Element Set (TLE):
1 69047U 26101Y   26157.25002315 -.02436421  00000-0 -72123-1 0  9995
2 69047  97.2852  12.3407 0002119  98.6960 194.0587 15.38607964  6020
Source of the keplerian elements: AFSPC